Regional Weather Roundup
Issued by NWS

Home | Current Version | Previous Version | Text Only | Print | Product List | Glossary Off
Versions: 1 2 3 4 5 6 7 8 9 10 11 12 13 14 15 16 17 18 19 20 21 22 23 24 25 26 27 28 29 30 31 32 33 34 35 36 37 38 39 40 41 42 43 44 45 46 47 48 49 50

317
ASUS45 KBOU 200810
RWRCO

WEATHER ROUNDUP FOR COLORADO
NATIONAL WEATHER SERVICE DENVER/BOULDER CO
200 AM MDT SUN MAY 20 2018

NOTE: "FAIR" INDICATES FEW OR NO CLOUDS BELOW 12000 FEET WITH NO
SIGNIFICANT WEATHER AND/OR OBSTRUCTIONS TO VISIBILITY.

COZ001>005-013-030-031-200900-
...NORTHWEST COLORADO...

CITY           SKY/WX    TMP DP  RH WIND       PRES   REMARKS
CRAIG          FAIR      42  39  89 CALM      30.13F
HAYDEN         FAIR      42  38  85 SE7       30.15F
MEEKER         FAIR      41  36  82 CALM      30.13S
RANGELY        FAIR      50  42  75 E10       30.08F
RABBIT EARS PA FAIR      32  32 100 S5        30.28S WCI  27
STEAMBOAT SPGS FAIR      38  38 100 CALM      30.15F
WALDEN         FAIR      32  30  93 SE6       30.23S WCI  26
$$

COZ006>008-011-200900-
...WEST CENTRAL VALLEYS...

CITY           SKY/WX    TMP DP  RH WIND       PRES   REMARKS
GRAND JUNCTION FAIR      59  36  42 E8        30.01R
MONTROSE       FAIR      54  35  48 SE8       30.08S
EAGLE          FAIR      38  35  89 CALM      30.19F
RIFLE          FAIR      45  40  82 S5        30.09F
DELTA          FAIR      56  36  48 CALM      30.05S
NUCLA          FAIR      54  28  37 E8        30.07F
$$

COZ017>023-064>068-200900-
...SOUTHWEST COLORADO...

CITY           SKY/WX    TMP DP  RH WIND       PRES   REMARKS
DURANGO        FAIR      48  29  47 N6        30.06F
CORTEZ         FAIR      44  24  45 CALM      30.01S
PAGOSA SPRINGS FAIR      38  24  55 CALM      30.14S
TELLURIDE      FAIR      41  28  60 SE12      30.22F
WOLF CREEK PAS FAIR      32  27  80 N6        30.40F WCI  26
$$

COZ009-010-012-014-032>034-037-058>063-200900-
...CENTRAL COLORADO...

CITY           SKY/WX    TMP DP  RH WIND       PRES   REMARKS
ASPEN          FAIR      38  28  67 CALM      30.17F
BUENA VISTA    CLOUDY    44  39  84 CALM      30.25F
COPPER MTN     FAIR      34  28  80 S20       30.35F WCI  22
BERTHOUD PASS  FAIR      27  16  63 W15       30.36F WCI  15
COTTONWOOD PAS CLOUDY    41  39  93 CALM      30.31F FOG
GUNNISON       FAIR      38  35  89 NE3       30.22S
GRANBY         FAIR      32  32  99 CALM      30.23F
KREMMLING      FAIR      41  36  81 CALM      30.21F
LEADVILLE      CLOUDY    35  35 100 S5        30.28F WCI  31
MONARCH PASS   MIX PCPN  32  30  93 MISG      30.46F VSB<1/4
SALIDA         CLOUDY    46  41  83 E7        30.32F
SUNLIGHT       FAIR      34  28  80 SE7       30.33F WCI  28
WILKERSON PASS SNOW      32  30  93 SW6       30.36F VSB 1/4 WCI  26
$$

COZ069>075-200900-
...SAN LUIS VALLEY/SANGRE DE CRISTO MOUNTAINS...

CITY           SKY/WX    TMP DP  RH WIND       PRES   REMARKS
ALAMOSA        FAIR      40  32  73 SW10      30.18F
DEL NORTE      FAIR      38  30  71 CALM      30.21F
LA VETA PASS   FOG       34  32  93 N12       30.40F VSB 3/4 WCI  25
SAGUACHE       NOT AVBL
$$

COZ035-036-038>040-200900-
...NORTHERN COLORADO FRONT RANGE...

CITY           SKY/WX    TMP DP  RH WIND       PRES   REMARKS
DENVER INTL AP CLOUDY    41  39  93 E10       30.23F
AURORA         NOT AVBL
FRONT RANGE AP CLOUDY    43  42  97 E5        30.25F FOG
ERIE MUNI ARPT LGT RAIN  43  42  95 E8        30.30F
BOULDER MUN AP LGT RAIN  43  43 100 E5        30.24F
CENTENNIAL     CLOUDY    43  40  89 CALM      30.23F
BROOMFIELD     CLOUDY    43  41  93 E9        30.24F FOG
FORT COLLINS   CLOUDY    43  41  93 E7        30.26F
LONGMONT       CLOUDY    46  44  93 E5        30.27F FOG
$$

COZ041-046-047-076>085-087-088-200900-
...PIKES PEAK/PALMER DIVIDE AND SOUTHERN FOOTHILLS...

CITY           SKY/WX    TMP DP  RH WIND       PRES   REMARKS
COLO. SPRINGS  LGT RAIN  44  40  85 N5        30.23F FOG
A. F. ACADEMY  CLOUDY    42  39  90 CALM      30.22F
SCHRIEVER AFB  NOT AVBL
CHEYENNE MTN   LGT RAIN  40  39  99 NE3       30.18F VSB 1/8
ELLICOTT         N/A    N/A N/A N/A N7        30.21F
FALCON         CLOUDY    40  38  90 N6        30.24F
FORT CARSON    CLOUDY    45  43  93 S8        30.21F
LIMON          CLOUDY    40  40 100 N14       30.22F
MONUMENT HILL  CLOUDY    36  36 100 CALM      30.25F
CANON CITY     CLOUDY    48  43  81 N3        30.23F
WALSENBURG     CLOUDY    45  45 100 CALM      30.23F
TRINIDAD       CLOUDY    46  43  89 CALM      30.23F
$$

COZ042>045-048>051-090-091-200900-
...NORTHEAST COLORADO...

CITY           SKY/WX    TMP DP  RH WIND       PRES   REMARKS
GREELEY ARPT   CLOUDY    43  40  89 E8        30.26F
AKRON          CLOUDY    41  40  96 NW8       30.23F
BURLINGTON     CLOUDY    44  41  89 N16G25    30.19F
WRAY           CLOUDY    45  43  93 NW10G16   30.20F
YUMA           CLOUDY    41  37  87 NW8       30.21F
STERLING       CLOUDY    43  41  93 NW8       30.24F
HOLYOKE        MOCLDY    45  41  87 NW9       30.21F
FORT MORGAN    CLOUDY    41  39  91 N8        30.26F
$$

COZ086-089-092>099-200900-
...SOUTHEAST COLORADO...

CITY           SKY/WX    TMP DP  RH WIND       PRES   REMARKS
PUEBLO         CLOUDY    50  43  77 E5        30.22F
LA JUNTA       CLOUDY    49  42  77 N9        30.20F
LAMAR          CLOUDY    48  40  73 N14G20    30.19R
SPRINGFIELD      N/A     43  42  97 N21G28    30.16F
$$




USA.gov is the U.S. government's official web portal to all federal, state and local government web resources and services.